Retour au catalogue

COSMOS 1823 DEB

ActifLEO
NORAD 39807·DEBRIS·🇷🇺 Russia

Lancé Feb 20, 1987 depuis Plesetsk Cosmodrome

Loading…

Prochains Passages (prochaines 24 heures)

TLE

VieillissantSource: Space-Track

Époque: Sep 12, 2026, 06:27 UTC

1 39807U 87020EF  26255.26891676  .00000202  00000-0  21533-3 0  9990
2 39807  74.0245  69.8848 0025009 157.1894  19.7135 13.80235083620620

Suivez COSMOS 1823 DEB en temps réel avec AllMySat

Download on the App Store